STARLINK-1619

decayed
NORAD ID: 46126 Int'l Des: 2020-057 Owner: SPXS Country: US Constellation: starlink
LEOCIRCULAR
Gruppe

Über STARLINK-1619

Beschreibung wird geladen...

Höhenverlauf

Altitude vs Time

uPlot chart will show altitude changes over time

Zweizeiliger Elementsatz

1 46126U 20057K 25102.97730672 .15947395 12491-4 73487-3 0 9990
2 46126 53.0136 280.0706 0008434 292.3288 155.1847 16.42632463258020
Epoch: 12. Apr. 2025 • Age: 3742 hours

Aktueller Status

Position data unavailable
Startdatum 18. Aug. 2020
Alter 5 years
Verglühungsdatum 13. Apr. 2025
Typ internet

Technische Details

Klassifizierung Payload
Masse 260.00 kg
Trockenmasse 248.00 kg
Gesamtmasse 260.00 kg
Länge 0.20 m
Durchmesser 2.80 m
Spannweite 9.00 m
Form Box + pan
Hersteller SPXS
Bus-Typ Starlink
Phasenstatus Unknown Transfer Status
Besitzer/Staat SPXS/US

Große Konstellationen

Loading constellations...